Location: Unspecified
(0.0000°N, 0.0000°E)
Time: 23:33:10
(UTC+00:00)

Falcon 9 debris - Visible Passes

Search period start: 19 November 2019 00:00
Search period end: 29 November 2019 00:00
Orbit: 430 x 438 km, 53.0° (Epoch: 18 November)

Date Brightness Start Highest point End Pass type
(mag) Time Alt. Az. Time Alt. Az. Time Alt. Az.
26 Nov ? 19:22:29 10° S 19:23:25 15° SSE 19:23:25 15° SSE visible
27 Nov ? 18:41:14 10° SE 18:42:28 11° SE 18:42:54 11° ESE visible
28 Nov ? 19:33:10 10° SW 19:35:45 38° W 19:35:45 38° W visible
